Chariton, IA

4:54 AM CST on February 22, 2017 (GMT -0600)
Chariton Municipal

Weather History for KCNC - November, 2011

Change the Weather History Date:

Saturday, November 5, 2011

  Actual Average Record
Temperature  
Mean Temperature 47 °F -  
Max Temperature 55 °F 51 °F 71 °F (2015)
Min Temperature 39 °F 31 °F 7 °F (1951)
Degree Days  
Heating Degree Days 18    
Moisture  
Dew Point 39 °F    
Average Humidity 76    
Maximum Humidity 87    
Minimum Humidity 63    
Precipitation  
Precipitation 0.00 in - - ()
Sea Level Pressure  
Sea Level Pressure 29.98 in    
Wind  
Wind Speed 11 mph (SSE)    
Max Wind Speed 21 mph    
Max Gust Speed 28 mph    
Visibility 8 miles    
Events      
Averages and records for this station are not official NWS values.
T = Trace of Precipitation, MM = Missing Value Source: NWS Daily Summary

Daily Weather History Graph

Daily Weather History Graph

Search for Another Location

Airport or City:

Trip Planner

Search our weather history database for the weather conditions in past years. The results will help you decide how hot, cold, wet, or windy it might be!

Date:

Astronomy

Nov. 05, 2011 Rise Set
Actual Time 7:48 AM CDT 6:04 PM CDT
Civil Twilight 7:19 AM CDT 6:33 PM CDT
Nautical Twilight 6:47 AM CDT 7:06 PM CDT
Astronomical Twilight 6:15 AM CDT 7:38 PM CDT
Moon 3:24 PM CDT (11/5) 2:57 AM CDT (11/5)
Length of Visible Light 11h 13m
Length of Day
10h 16m
Waxing Gibbous, 78% of the Moon is Illuminated
Nov 5
Waxing Gibbous
Nov 10
Full
Nov 18
Last Quarter
Nov 25
New
Dec 2
First Quarter

Hourly Weather History & Observations

Time (CDT) Temp. Windchill Dew Point Humidity Pressure Visibility Wind Dir Wind Speed Gust Speed Precip Events Conditions
12:15 AM 41.0 °F 35.8 °F 33.8 °F 76% 30.12 in 10.0 mi SSE 8.1 mph - N/A   Clear
12:35 AM 41.0 °F 36.4 °F 33.8 °F 76% 30.12 in 10.0 mi SSE 6.9 mph - N/A   Clear
12:55 AM 41.0 °F 35.2 °F 33.8 °F 76% 30.12 in 10.0 mi SE 9.2 mph - N/A   Clear
1:15 AM 41.0 °F 35.2 °F 33.8 °F 76% 30.11 in 10.0 mi SE 9.2 mph - N/A   Clear
1:35 AM 39.2 °F 34.2 °F 33.8 °F 81% 30.11 in 10.0 mi SSE 6.9 mph - N/A   Clear
1:55 AM 41.0 °F 35.2 °F 33.8 °F 76% 30.10 in 10.0 mi SSE 9.2 mph - N/A   Clear
2:35 AM 41.0 °F 35.2 °F 33.8 °F 76% 30.10 in 10.0 mi SSE 9.2 mph - N/A   Clear
2:55 AM 41.0 °F 34.7 °F 33.8 °F 76% 30.10 in 10.0 mi SSE 10.4 mph - N/A   Clear
3:15 AM 41.0 °F 34.3 °F 35.6 °F 81% 30.09 in 10.0 mi SSE 11.5 mph - N/A   Clear
3:35 AM 41.0 °F 34.3 °F 35.6 °F 81% 30.09 in 10.0 mi SSE 11.5 mph - N/A   Clear
3:55 AM 41.0 °F 35.2 °F 35.6 °F 81% 30.08 in 10.0 mi SSE 9.2 mph - N/A   Clear
4:15 AM 41.0 °F 36.4 °F 35.6 °F 81% 30.08 in 7.0 mi SSE 6.9 mph - N/A   Clear
4:35 AM 39.2 °F 33.0 °F 35.6 °F 87% 30.07 in 7.0 mi SSE 9.2 mph - N/A   Clear
4:55 AM 39.2 °F 33.0 °F 35.6 °F 87% 30.07 in 7.0 mi SSE 9.2 mph - N/A   Clear
5:15 AM 39.2 °F 33.6 °F 35.6 °F 87% 30.06 in 5.0 mi SE 8.1 mph - N/A   Haze
5:35 AM 39.2 °F 33.0 °F 35.6 °F 87% 30.05 in 5.0 mi SE 9.2 mph - N/A   Haze
5:55 AM 41.0 °F 34.3 °F 37.4 °F 87% 30.06 in 7.0 mi SSE 11.5 mph - N/A   Clear
6:35 AM 42.8 °F 35.8 °F 37.4 °F 81% 30.05 in 7.0 mi SSE 13.8 mph - N/A   Clear
7:15 AM 42.8 °F 36.6 °F 37.4 °F 81% 30.05 in 5.0 mi SSE 11.5 mph - N/A   Haze
7:35 AM 42.8 °F 35.4 °F 37.4 °F 81% 30.05 in 5.0 mi South 15.0 mph - N/A   Haze
8:15 AM 42.8 °F 36.6 °F 37.4 °F 81% 30.05 in 4.0 mi South 11.5 mph 17.3 mph N/A   Haze
8:35 AM 44.6 °F 38.1 °F 39.2 °F 81% 30.05 in 4.0 mi South 13.8 mph - N/A   Haze
8:55 AM 44.6 °F 37.8 °F 39.2 °F 81% 30.05 in 4.0 mi South 15.0 mph 18.4 mph N/A   Haze
9:15 AM 44.6 °F 38.1 °F 39.2 °F 81% 30.05 in 4.0 mi South 13.8 mph 19.6 mph N/A   Haze
9:35 AM 44.6 °F 38.1 °F 39.2 °F 81% 30.05 in 5.0 mi South 13.8 mph 19.6 mph N/A   Haze
9:55 AM 44.6 °F 38.4 °F 39.2 °F 81% 30.05 in 5.0 mi South 12.7 mph 20.7 mph N/A   Haze
10:15 AM 44.6 °F 38.1 °F 39.2 °F 81% 30.04 in 7.0 mi South 13.8 mph 20.7 mph N/A   Overcast
10:35 AM 44.6 °F 38.8 °F 39.2 °F 81% 30.04 in 7.0 mi South 11.5 mph - N/A   Overcast
10:55 AM 44.6 °F 37.4 °F 39.2 °F 81% 30.03 in 5.0 mi South 16.1 mph 21.9 mph N/A   Haze
11:15 AM 46.4 °F 40.1 °F 39.2 °F 76% 30.03 in 7.0 mi South 15.0 mph 19.6 mph N/A   Overcast
11:55 AM 46.4 °F 40.1 °F 39.2 °F 76% 30.03 in 7.0 mi South 15.0 mph 21.9 mph N/A   Overcast
12:15 PM 46.4 °F 40.4 °F 39.2 °F 76% 30.02 in 7.0 mi South 13.8 mph 21.9 mph N/A   Overcast
1:15 PM 50.0 °F - 42.8 °F 76% 29.98 in 10.0 mi SSE 15.0 mph 21.9 mph N/A   Mostly Cloudy
1:35 PM 51.8 °F - 42.8 °F 71% 29.97 in 10.0 mi SSE 16.1 mph - N/A   Mostly Cloudy
1:55 PM 51.8 °F - 42.8 °F 71% 29.95 in 10.0 mi SSE 13.8 mph 21.9 mph N/A   Scattered Clouds
2:15 PM 53.6 °F - 42.8 °F 67% 29.94 in 10.0 mi SSE 15.0 mph 25.3 mph N/A   Scattered Clouds
2:35 PM 53.6 °F - 42.8 °F 67% 29.93 in 10.0 mi SSE 19.6 mph 25.3 mph N/A   Scattered Clouds
2:55 PM 53.6 °F - 42.8 °F 67% 29.92 in 10.0 mi South 16.1 mph 21.9 mph N/A   Scattered Clouds
3:15 PM 55.4 °F - 42.8 °F 63% 29.91 in 10.0 mi SSE 16.1 mph 23.0 mph N/A   Clear
3:35 PM 55.4 °F - 42.8 °F 63% 29.90 in 10.0 mi SSE 20.7 mph 24.2 mph N/A   Clear
3:55 PM 55.4 °F - 42.8 °F 63% 29.89 in 10.0 mi SSE 16.1 mph 25.3 mph N/A   Clear
4:15 PM 55.4 °F - 42.8 °F 63% 29.88 in 10.0 mi SSE 16.1 mph 27.6 mph N/A   Clear
4:35 PM 55.4 °F - 42.8 °F 63% 29.88 in 10.0 mi SSE 18.4 mph 24.2 mph N/A   Clear
4:55 PM 55.4 °F - 42.8 °F 63% 29.87 in 10.0 mi SE 15.0 mph 24.2 mph N/A   Clear
5:15 PM 53.6 °F - 42.8 °F 67% 29.86 in 10.0 mi SE 13.8 mph 19.6 mph N/A   Clear
5:35 PM 53.6 °F - 42.8 °F 67% 29.86 in 10.0 mi SE 11.5 mph - N/A   Clear
5:55 PM 51.8 °F - 42.8 °F 71% 29.85 in 10.0 mi SE 11.5 mph - N/A   Clear
6:15 PM 51.8 °F - 42.8 °F 71% 29.86 in 10.0 mi SE 10.4 mph 17.3 mph N/A   Clear
6:35 PM 50.0 °F - 41.0 °F 71% 29.86 in 10.0 mi SE 10.4 mph - N/A   Clear
6:55 PM 48.2 °F - 41.0 °F 76% 29.86 in 10.0 mi SE 11.5 mph 19.6 mph N/A   Clear
7:15 PM 48.2 °F - 41.0 °F 76% 29.85 in 10.0 mi SE 12.7 mph - N/A   Clear
7:35 PM 48.2 °F - 41.0 °F 76% 29.86 in 10.0 mi SSE 10.4 mph - N/A   Clear
7:55 PM 48.2 °F - 39.2 °F 71% 29.85 in 10.0 mi SSE 11.5 mph - N/A   Clear
8:15 PM 46.4 °F 41.9 °F 39.2 °F 76% 29.85 in 10.0 mi SSE 9.2 mph - N/A   Clear
8:35 PM 46.4 °F 41.9 °F 39.2 °F 76% 29.85 in 10.0 mi SSE 9.2 mph - N/A   Clear
8:55 PM 46.4 °F 41.5 °F 39.2 °F 76% 29.83 in 10.0 mi SE 10.4 mph - N/A   Clear
9:15 PM 46.4 °F 40.7 °F 41.0 °F 81% 29.82 in 10.0 mi SSE 12.7 mph - N/A   Clear
9:35 PM 48.2 °F - 41.0 °F 76% 29.82 in 10.0 mi SSE 15.0 mph 18.4 mph N/A   Clear
9:55 PM 48.2 °F - 41.0 °F 76% 29.80 in 10.0 mi SE 17.3 mph 25.3 mph N/A   Clear
10:15 PM 48.2 °F - 41.0 °F 76% 29.81 in 10.0 mi SSE 17.3 mph 23.0 mph N/A   Clear
10:35 PM 50.0 °F - 41.0 °F 71% 29.82 in 10.0 mi South 18.4 mph 25.3 mph N/A   Clear
10:55 PM 50.0 °F - 41.0 °F 71% 29.82 in 10.0 mi SSE 16.1 mph 25.3 mph N/A   Clear
11:15 PM 50.0 °F - 41.0 °F 71% 29.82 in 10.0 mi South 17.3 mph 28.8 mph N/A   Clear
11:35 PM 50.0 °F - 41.0 °F 71% 29.83 in 10.0 mi South 17.3 mph 23.0 mph N/A   Clear
11:55 PM 50.0 °F - 41.0 °F 71% 29.83 in 10.0 mi South 15.0 mph 25.3 mph N/A   Clear